This demonstration page uses our WeatherBlox Daily Observations layout. Learn more.

Hourly Observations for May 14, 2019

Temp ( °F °C ) Dew Point ( °F °C ) Humidity (%) Winds ( mph kmh ) Pressure ( in mb ) Visibility ( mi km ) Precip ( " mm )
12:54 am 00:54 Clear 61 16.1 50 10 67 67 S 12 19 29.85 1011 10 16.09344 0 0
1:54 am 01:54 Partly Cloudy 61 16.1 49 9.4 65 65 S 10 17 29.85 1011 10 16.09344 0 0
2:54 am 02:54 Partly Cloudy 58 14.4 49 9.4 72 72 SSE 12 19 29.83 1010 10 16.09344 0 0
3:35 am 03:35 Mostly Cloudy with Thunderstorms 60 15.6 49 9.4 67 67 N 12 19 29.91 1013 10 16.09344 0 0
3:50 am 03:50 Cloudy with Heavy Rain 57 14 52 11 82 82 SE 9 15 29.91 1013 6 9.656064 0.03 0.762
3:54 am 03:54 Cloudy with Heavy Rain 58 14.4 52 11.1 81 81 SSE 14 22 29.85 1011 5 8.04672 0.05 1.27
4:11 am 04:11 Partly Cloudy with Light Rain 58 14.4 52 11.1 81 81 ESE 13 20 29.88 1012 10 16.09344 0.01 0.254
4:54 am 04:54 Mostly Cloudy 57 13.9 52 11.1 83 83 S 12 19 29.83 1010 10 16.09344 0.01 0.254
5:54 am 05:54 Clear 56 13.3 51 10.6 84 84 S 9 15 29.83 1010 10 16.09344 0 0
6:54 am 06:54 Sunny 57 13.9 52 11.1 83 83 S 3 6 29.85 1011 10 16.09344 0.01 0.254
7:54 am 07:54 Sunny 61 16.1 53 11.7 75 75 S 6 9 29.85 1011 10 16.09344 0 0
8:54 am 08:54 Sunny 64 17.8 53 11.7 68 68 S 10 17 29.85 1011 10 16.09344 0 0
9:54 am 09:54 Sunny 67 19.4 56 13.3 68 68 S 13 20 29.85 1011 10 16.09344 0 0
10:54 am 10:54 Sunny 71 21.7 57 13.9 61 61 SSW 8 13 29.85 1011 10 16.09344 0 0
11:54 am 11:54 Sunny 74 23.3 58 14.4 57 57 SW 8 13 29.85 1011 10 16.09344 0 0
12:54 pm 12:54 Sunny 77 25 59 15 54 54 VRB 3 6 29.85 1011 10 16.09344 0 0
1:54 pm 13:54 Sunny 79 26.1 59 15 50 50 ENE 3 6 29.83 1010 10 16.09344 0 0
2:54 pm 14:54 Sunny 80 26.7 61 16.1 52 52 VRB 5 7 29.83 1010 10 16.09344 0 0
3:54 pm 15:54 Sunny 83 28.3 59 15 44 44 N 3 6 29.83 1010 10 16.09344 0 0
4:54 pm 16:54 Sunny 82 27.8 55 12.8 40 40 S 3 6 29.8 1009 10 16.09344 0 0
5:54 pm 17:54 Sunny 83 28.3 55 12.8 38 38 Calm 29.83 1010 10 16.09344 0 0
6:54 pm 18:54 Sunny 84 28.9 56 13.3 38 38 Calm 29.8 1009 10 16.09344 0 0
7:54 pm 19:54 Sunny 80 26.7 55 12.8 42 42 S 3 6 29.83 1010 10 16.09344 0 0
8:54 pm 20:54 Clear 71 21.7 55 12.8 57 57 Calm 29.83 1010 10 16.09344 0 0
9:54 pm 21:54 Clear 71 21.7 53 11.7 53 53 Calm 29.83 1010 10 16.09344 0 0
10:54 pm 22:54 Clear 67 19.4 57 13.9 71 71 NNW 5 7 29.85 1011 10 16.09344 0 0
11:54 pm 23:54 Clear 61 16.1 56 13.3 84 84 N 8 13 29.85 1011 10 16.09344 0 0

Powered by AerisWeather